星链-5754 (STARLINK-5754 )

导读

STARLINK-5754是美国SpaceX公司星链(Starlink)互联网星座的一颗卫星,于2023年2月12日由美国发射升空,属于星链低轨星座组网卫星。它运行在近地轨道,依托猎鹰9火箭发射,属于星链全球卫星互联网项目的一部分。该卫星与其他数千颗星链卫星组网,共同为全球提供高速宽带互联网接入服务,进一步扩充星链星座的覆盖能力与服务容量。

Basic Information
目录编号:
55579
目录名称:
STARLINK-5754
国际标识:
2023-020L
轨道中心:
EARTH
卫星名称:
星链-5754
卫星全名:
星链-5754 (STARLINK-5754 )
卫星状态:
在轨 (已飞行1308 天)
发射日期:
2023-02-12 UTC
国别 :
美国 (US)
星等 :
--
This satellite is enrolled in the Space Conjunction Data Service (SCDS) and the current flight risk assessment level is: No High Risk
Orbit Information
数据来源 国际轨道数据
星历时间: 2026-09-12T01:12:01+0800
21小时前
查看轨道信息
半长轴: 6861.205km
偏心率: 0.0001505
轨道倾角: 43.006°
近地点辐角 279.211°
升交点赤经 34.582°
平近点角 80.857°
近地点: 482.035km
远地点: 484.101km
周期: 94.267分钟
每日圈数: 15.275738
Detailed Information
固有亮度:
5
最大亮度:
2.5
卫星平台:
Starlink v1.5
覆盖范围:
全球
运营商:
太空探索技术公司
运营商所在国:
美国
制造商(研发单位):
太空探索技术公司
制造商所在国:
美国
使用方式:
暂无
Satellite Introduction
星链(Starlink)计划是由太空探索技术公司(SpaceX)提出的一个巨型低轨卫星互联网星座项目,计划在2019年至2024年间在太空搭建由约1.2万颗卫星组成的“星链”网络,其中1584颗将部署在地球上空550千米处的近地轨道,并从2020年开始工作。该卫星仍在工作。
2D Orbit Map
3D Orbit Map
Orbit Altitude Analysis Chart
Orbit Inclination Analysis Chart
Orbit Comprehensive Analysis Chart
View Comprehensive Chart
Conjunction Data List
Event ID Objects TCA Miss Dist (km) Collision Risk Probability Collision Risk Index (CRI) Action
CDM_260914-112005-557906-356121
2026-09-14T
11:20:06+0000
0.392 km
远距离
2.371104E-4 高风险 0.82
CDM_260915-021405-557906-356121
2026-09-15T
02:14:34+0000
0.930 km
远距离
2.177386E-5 中风险 0.62
CDM_260914-094505-557906-356121
2026-09-14T
09:45:57+0000
1.395 km
极远距离
5.429628E-6 低风险 0.5
CDM_260915-004005-557906-356121
2026-09-15T
00:40:25+0000
1.706 km
极远距离
2.893008E-6 低风险 0.44
CDM_260912-052305-557905-740021
2026-09-12T
05:23:23+0000
1.885 km
极远距离
2.792383E-6 低风险 0.44
CDM_260914-125405-557906-356121
2026-09-14T
12:54:15+0000
2.013 km
极远距离
1.861417E-6 低风险 0.4
CDM_260913-072305-557906-272721
OBJECT C (62727)
2026-09-13T
07:23:49+0000
2.345 km
极远距离
1.473278E-6 低风险 0.38
CDM_260913-221705-557905-721721
2026-09-13T
22:17:07+0000
2.508 km
极远距离
1.332231E-6 低风险 0.37
CDM_260915-034805-557906-356121
2026-09-15T
03:48:43+0000
2.619 km
极远距离
1.103203E-6 低风险 0.36
CDM_260914-191805-557906-430921
2026-09-14T
19:18:39+0000
2.592 km
极远距离
1.06621E-6 低风险 0.36
Miss Distance Evolution Trend with All Objects
Collision Probability Evolution Trend with All Objects